THOR ABLESTAR DEB, 409

Orbit data source: Space-Track

THOR ABLESTAR DEB, 409 is space debris in LEO originally from a launch on Thu, 29 Jun 1961 UTC launched from the Air Force Eastern Test Range (AFETR). Debris objects in space refer to the collection of defunct objects orbiting the Earth. Examples of debris include non-operational satellites, rocket bodies, and fragments generated from explosions, collisions, or faulty payload assembly.

Loading next visibility...
Identifier
409, 1961-015EJ
Orbit
LEO
Country
Flag of USUS
Related business
Manufacturer
Unknown
Mission
Spacecraft
Bus & Motor
Unknown
Mass
Unknown
Launch date (UTC)
1961-06-29 (64 years ago)
Launch vehicle
Unknown
Launch site
Air Force Eastern Test Range (AFETR)
Object type
Payload
Rocket body
Debris
Shape & HBR
Unknown shape, 0.1 m
Radar Cross Section
Small (<0.1 m²)

Expand to show TLE details & history
Last TLE update: 14 hours ago

TLE from 14 hours ago
0 THOR ABLESTAR DEB
1 00409U 61015EJ  25311.06510819  .00001702  00000-0  69789-3 0  9990
2 00409  66.7138 209.1032 0065814 330.8752  28.8680 14.28357457309577
Epoch: 2025-11-07T01:33Z
TLE epoch observation values (Epoch: 2025-11-07T01:33:45.347Z)
Latitude
-0.00004°
Longitude
139.14981°
Altitude
758.046 km
Speed
7.497 km/s
True Right ascension
13h 56m 24s
True Declination
0° 00' 00"
Sunlit
Object was in daylight at epoch
Visualization orbit readout
Latitude
Unknown
Longitude
Unknown
Altitude
Unknown
Speed
Unknown
Apparent Right ascension
Unknown
Apparent Declination
Unknown
Sunlit
N/A
Visualization observer readout
Local Sidereal Time
12:10:53
Azimuth
Unknown
Elevation
Unknown
Doppler factor
Unknown
Orbital elements
Apogee altitude
842.814 km
Perigee altitude
748.388 km
Semi-major axis
7,173.738 km
Eccentricity
0.00658
Inclination
66.7138°
RAAN
209.1032°
Arg. of periapsis
330.8752°
True anomaly
29.23475°
Mean anomaly
28.868°
Eccentric anomaly
29.05111°
Mean motion
3.57211 °/min
Orbital period
100.78 mins
BSTAR
0.00069789
Loading maneuver chart data...
Computing Atmospheric mass density...

Documentation

Showing up to 5 results
|